カタログに戻る

STARLINK-38014

運用中通信SSO
NORAD 69721·PAYLOAD·🇺🇸 United States

打ち上げ Jun 28, 2026 から Vandenberg Space Force Base

Loading…

次のパス (今後24時間)

TLE

最新Source: CelesTrak SupGP

元期: Sep 15, 2026, 04:26 UTC

1 69721C 26147T   26258.18520833 -.00049112  00000+0 -15247-2 0  2585
2 69721  97.2836 294.6565 0001027  92.4899 191.0847 15.33462517    18

AllMySatでSTARLINK-38014をリアルタイム追跡

Download on the App Store